Simultaneous Nadir Overpasses (SNOs) Predictions

Prediction of SNOs between GOES-16 and METOP-C Satellite Orbit:

Table of predicted SNOs for the next 14.0 days since TLE Epoch: 4/10/2020
Index Date Time (GOES-16) GOES-16 Lat,Lon METOP-C Lat,Lon Distance(km) Time Diff (sec)
1 04/11/2020 14:36:22 0.01, -75.22 0.32, -76.50 146.36 80
2 04/12/2020 14:18:23 0.01, -75.21 -0.83, -71.51 422.01 80
3 04/14/2020 02:37:23 -0.01, -75.18 -0.23, -76.10 105.56 80
4 04/15/2020 02:14:05 -0.01, -75.17 0.91, -71.11 463.12 80
5 04/16/2020 14:32:56 0.01, -75.20 0.14, -75.67 53.93 80
6 04/19/2020 02:33:58 -0.01, -75.18 -0.06, -75.27 11.32 80
7 04/21/2020 14:32:11 0.01, -75.22 -0.05, -74.84 43.41 80
8 04/23/2020 02:51:12 -0.01, -75.21 -0.97, -79.44 481.82 80
9 04/24/2020 02:27:54 -0.01, -75.22 0.18, -74.45 88.33 80




NCC Satellite Simultaneous Nadir Overpasses (SNOs) Prediction Service
